Flag for Germany Weather past 2 weeks in Eberswalde, Brandenburg, Germany

Now
43 °F

Sprinkles. Partly sunny.


Feels Like: 33 °F
Forecast: 36 / 47 °F
Wind: 25 mph from West

Location: Berlin-Tegel

Current Time: Mar 30, 2015 at 12:52:43 PM

Latest Report: Mar 30, 2015 at 12:20 PM


Visibility: N/A

Pressure: 29.27 "Hg

Humidity: 76%

Dew point: 36 °F

Location of EberswaldeLocation

Historic Weather in Eberswalde — Graph

°F

Eberswalde temperature yesterday

Maximum temperature yesterday: 55 °F (at 11:50 AM)
Minimum temperature yesterday: 43 °F (at 1:20 AM)
Average temperature yesterday: 49 °F

Past Weeks' High & Low Weather Summary

 TemperatureHumidityPressure
High63 °F (Mar 17, 2:50 PM)100% (Mar 21, 5:20 AM)30.48 "Hg (Mar 21, 5:20 AM)
Low27 °F (Mar 20, 5:20 AM)14% (Mar 18, 2:20 PM)29.03 "Hg (Mar 30, 12:20 AM)
Average45 °F65%30.04 "Hg
* Reported Mar 15 10:20 AM — Mar 30 11:50 AM, Eberswalde, Weather by CustomWeather, © 2015

Note: Actual official high and low records may vary slightly from our data, if they occured in-between our weather recording intervals... More about our weather records

Advertising

Eberswalde weather history for previous 24 hours

 ConditionsComfort  
Time TempWeatherWind HumidityBarometerVisibility
11:50 AM
Mon, Mar 30
45 °FPartly sunny.22 mph66%29.27 "HgN/A
11:20 AM45 °FSprinkles. Partly sunny.24 mph66%29.27 "HgN/A
10:50 AM43 °FPartly sunny.23 mph76%29.24 "HgN/A
10:20 AM43 °FPartly sunny.25 mph76%29.24 "HgN/A
9:50 AM41 °FPartly sunny.23 mph81%29.24 "HgN/A
9:20 AM41 °FSprinkles. Partly sunny.25 mph87%29.21 "HgN/A
8:50 AM43 °FSprinkles. Partly sunny.18 mph81%29.21 "HgN/A
8:20 AM43 °FSprinkles. Partly sunny.25 mph81%29.21 "HgN/A
7:50 AM43 °FPartly sunny.16 mph76%29.18 "HgN/A
7:20 AM43 °FPassing clouds.21 mph76%29.18 "HgN/A
6:50 AM43 °FPartly cloudy.20 mph76%29.18 "HgN/A
6:20 AM43 °FPassing clouds.20 mph76%29.18 "HgN/A
5:50 AM43 °FPassing clouds.20 mph76%29.15 "HgN/A
5:20 AM45 °FLight rain. Overcast.28 mph71%29.15 "HgN/A
4:50 AM45 °FLight rain. Passing clouds.25 mph71%29.15 "HgN/A
4:20 AM45 °FPassing clouds.29 mph71%29.12 "HgN/A
3:50 AM45 °FPassing clouds.26 mph76%29.12 "HgN/A
3:20 AM43 °FLight rain. Passing clouds.28 mph81%29.12 "HgN/A
2:50 AM43 °FLight rain. Passing clouds.28 mph87%29.12 "HgN/A
2:20 AM43 °FLight rain. Passing clouds.32 mph87%29.09 "HgN/A
1:50 AM45 °FLight rain. Passing clouds.41 mph81%29.06 "HgN/A
1:20 AM48 °FPassing clouds.35 mph71%29.06 "HgN/A
12:50 AM50 °FPassing clouds.24 mph76%29.03 "HgN/A
12:20 AM50 °FMostly cloudy.18 mph88%29.03 "HgN/A
11:50 PM
Sun, Mar 29
50 °FPassing clouds.14 mph88%29.06 "HgN/A
11:20 PM50 °FLight rain. Partly cloudy.16 mph88%29.06 "HgN/A
10:50 PM48 °FLight rain. Passing clouds.13 mph94%29.09 "HgN/A
10:20 PM48 °FLight rain. Mostly cloudy.17 mph94%29.12 "HgN/A
9:50 PM48 °FLight rain. Passing clouds.17 mph94%29.15 "HgN/A
9:20 PM48 °FLight rain. Passing clouds.14 mph94%29.18 "HgN/A
8:50 PM48 °FLight rain. Passing clouds.15 mph94%29.24 "HgN/A
8:20 PM48 °FLight rain. Partly sunny.13 mph94%29.27 "HgN/A
7:50 PM48 °FLight rain. Partly sunny.13 mph94%29.30 "HgN/A
7:20 PM48 °FLight rain. Partly sunny.14 mph94%29.30 "HgN/A
6:50 PM50 °FLight rain. Broken clouds.13 mph88%29.33 "HgN/A
6:20 PM50 °FLight rain. Broken clouds.13 mph88%29.36 "HgN/A
5:50 PM50 °FLight rain. Cloudy.13 mph88%29.36 "HgN/A
5:20 PM50 °FLight rain. Cloudy.13 mph88%29.39 "HgN/A
4:50 PM50 °FLight rain. Mostly cloudy.12 mph88%29.42 "HgN/A
4:20 PM50 °FLight rain. More clouds than sun.14 mph88%29.42 "HgN/A
3:50 PM52 °FLight rain. More clouds than sun.15 mph82%29.45 "HgN/A
3:20 PM52 °FLight rain. Mostly cloudy.17 mph82%29.45 "HgN/A
2:50 PM52 °FLight rain. Cloudy.14 mph82%29.47 "HgN/A
2:20 PM52 °FLight rain. Partly sunny.18 mph77%29.47 "HgN/A
1:50 PM54 °FLight rain. Partly sunny.20 mph72%29.50 "HgN/A
1:20 PM55 °FBroken clouds.16 mph63%29.50 "HgN/A
12:50 PM54 °FBroken clouds.22 mph72%29.50 "HgN/A
12:20 PM54 °FBroken clouds.20 mph67%29.53 "HgN/A
Weather by CustomWeather, © 2015

See weather overviewHow to use our weather pages